Lid_Strength_Index
1 1 1 1 1 1 1 2 2 2 2 2 2 2 1 2 2 2 3 2 4 8 8 6 6 9 8 8 10 9 10 10 10 12 13 13 13 11 13 12 14 14 14 15 14 16 18 8 12 13 9 7 8 8
1 1 1 1 1 0 0 0 1 1 1 1 1 1 1 1 2 2 5 2 2 6 9 4 4 4 5 6 7 7 9 9 8 10 10 10 12 11 12 15 10 14 11 12 12 12 8 8 9 8 8 9 8 8
1 1 0 -0 -0 -1 -1 -1 -1 -0 0 0 1 0 0 1 1 1 4 3 4 7 7 8 9 5 3 3 3 8 8 6 6 5 8 9 11 9 13 12 11 10 8 11 11 10 9 8 8 8 8 8 7 6
1 -0 -1 -2 -2 -2 -2 -1 -1 -1 -1 -0 -0 -0 0 0 1 1 3 3 4 6 9 8 5 7 4 3 4 4 5 5 5 6 8 10 11 8 11 11 11 10 9 11 12 10 9 8 7 6 6 6 7 6
-0 -1 -2 -2 -2 -2 -2 -2 -1 -1 -1 -1 -1 -1 -1 -1 -0 1 2 2 3 6 9 8 7 6 5 4 5 4 5 6 7 9 10 11 9 9 9 10 11 10 11 12 13 9 9 8 6 6 6 6 6 6
-1 -1 -2 -2 -2 -2 -2 -2 -2 -2 -2 -1 -1 -1 -1 -1 -1 1 6 2 2 3 7 11 7 8 7 6 6 6 6 6 7 9 10 9 8 9 12 14 10 8 8 7 9 7 7 7 6 6 7 6 6 6
-1 -1 -1 -2 -2 -2 -2 -2 -2 -1 -1 -1 -1 -1 -1 -1 0 4 5 3 1 2 7 9 10 9 7 7 7 7 6 7 8 9 10 10 9 8 11 15 11 9 8 7 7 7 9 8 8 7 7 6 6 7
-1 -1 -1 -2 -2 -1 -1 -1 -1 -1 -1 -1 -1 -1 -1 -1 -0 3 0 -0 0 4 5 10 11 9 7 9 9 6 8 7 8 9 8 10 9 9 14 11 10 9 8 8 8 7 7 6 7 7 7 7 7 8
-1 -1 -2 -1 -1 -1 -1 -1 -1 -1 -1 -1 -1 -1 -0 1 4 3 -1 -1 1 5 8 9 12 13 7 7 7 7 6 10 6 10 11 9 11 14 12 11 10 9 9 8 7 7 7 8 8 8 7 7 8 8
-1 -1 -1 -1 -1 -1 -1 -1 -1 -1 -1 -1 0 3 6 3 -1 -0 3 5 5 5 6 9 7 11 8 8 9 9 7 10 12 10 7 11 12 9 9 8 7 7 6 6 8 8 7 7 8 8 8 7 7 7
-1 -1 -1 -1 -1 -1 -1 -1 -1 -1 -1 2 4 5 2 -1 2 4 8 8 7 9 7 7 7 9 6 10 9 7 9 9 13 10 11 11 12 10 7 6 5 5 5 5 4 5 5 6 7 7 7 6 7 7
-1 -1 -1 -1 -1 -1 -1 -1 -1 1 3 2 2 2 3 5 6 9 10 8 9 11 8 8 8 7 7 6 8 8 10 10 14 10 12 14 12 8 7 6 6 5 5 5 5 6 6 7 7 7 7 7 7 6
-0 -1 -1 -1 -1 -1 -0 -0 -1 -0 0 3 4 6 7 7 11 12 14 12 11 9 9 9 9 7 9 7 8 9 12 12 9 12 13 12 9 9 8 7 7 6 6 7 7 7 7 7 7 8 8 7 7 7
0 -1 -1 -0 -0 -0 -0 -0 -0 0 4 6 8 11 10 11 10 10 10 9 8 8 9 8 9 9 7 9 9 12 10 11 13 15 16 10 8 9 10 10 11 11 10 11 11 9 9 9 9 8 9 8 8 9
1 0 0 0 -0 -0 -0 -0 -0 3 4 8 8 12 11 9 10 10 11 10 9 7 8 9 9 8 10 10 9 12 15 15 13 15 10 7 11 13 12 12 13 13 12 12 12 12 12 12 12 11 10 10 9 9
1 1 2 0 -0 0 -0 0 3 4 7 8 9 12 13 11 10 12 11 10 9 7 6 6 10 11 11 10 13 14 14 16 12 9 10 11 13 14 15 15 15 14 14 15 14 14 14 14 13 13 14 14 13 12
2 3 1 0 0 1 2 3 4 8 8 10 10 10 9 9 9 9 10 9 8 8 10 9 12 13 12 13 14 12 13 10 13 13 13 13 15 16 16 17 17 17 17 16 16 16 16 15 15 16 17 15 14 14
4 3 1 1 2 4 7 9 8 9 11 12 11 11 11 10 11 12 12 11 10 9 9 10 10 14 14 15 14 15 16 16 15 16 16 16 17 17 17 19 19 19 19 18 18 18 17 16 16 15 14 15 16 16
4 2 2 2 3 7 9 11 11 12 13 13 13 12 11 10 10 10 10 10 9 9 10 11 12 16 18 18 19 18 18 18 19 19 18 17 17 18 20 20 19 19 19 19 18 18 17 16 16 15 16 16 17 15
3 4 4 2 5 7 10 12 12 10 12 13 13 12 11 10 10 13 14 13 13 14 18 19 21 21 21 20 20 20 19 19 20 21 19 19 19 20 20 21 20 19 19 19 18 19 18 17 16 16 16 17 18 17
8 7 7 5 8 10 13 15 14 15 13 12 12 11 12 11 13 14 16 15 18 21 21 21 22 22 21 21 19 20 20 22 22 22 22 22 20 20 20 19 19 19 20 20 21 21 20 20 18 17 17 17 17 18
11 8 11 12 10 10 14 17 16 14 14 13 12 12 13 14 15 16 16 20 22 23 23 23 24 24 24 22 22 22 22 23 22 21 21 21 22 22 22 21 22 22 22 22 22 23 22 20 20 19 18 17 17 18
12 13 16 17 13 13 16 16 14 16 13 15 13 13 15 15 16 15 20 21 23 23 24 24 25 24 23 21 22 23 23 24 24 23 23 22 21 20 21 21 22 23 23 23 23 23 23 22 21 20 18 18 18 18
15 22 23 24 24 23 20 20 18 18 17 19 17 16 18 18 17 19 23 23 23 23 25 26 25 25 23 23 24 25 25 24 25 24 23 23 23 22 21 22 22 21 22 24 23 23 23 23 22 21 21 19 19 19
20 25 23 26 24 25 26 24 23 21 23 22 19 19 21 20 20 23 24 25 25 25 26 26 26 26 27 25 25 25 24 25 26 27 24 22 23 23 23 23 23 22 22 25 25 25 25 24 23 23 23 20 20 20
28 27 26 27 26 26 27 25 25 26 25 24 25 24 22 20 21 25 26 27 27 26 27 28 28 28 27 26 27 27 26 25 25 26 23 23 23 24 26 27 27 25 23 24 25 26 25 24 24 24 23 21 20 21
28 28 27 25 27 25 24 23 22 24 26 27 27 27 24 24 25 26 25 25 26 25 25 26 26 27 27 27 26 25 25 25 26 26 25 24 21 22 24 27 28 26 24 24 25 25 25 25 24 23 23 21 20 20
30 29 31 29 29 27 26 24 25 27 26 25 25 26 26 26 26 26 25 24 24 24 25 25 25 25 27 26 26 26 26 25 25 24 22 21 20 21 24 25 25 22 24 24 24 24 24 24 23 23 22 21 21 21
28 31 31 29 29 27 26 26 26 26 26 27 27 26 25 25 26 26 25 24 24 24 25 26 25 25 25 25 25 25 26 27 29 31 31 29 27 25 25 26 26 25 24 24 23 22 22 22 22 22 21 20 20 20
29 35 28 32 33 28 26 29 28 29 29 28 29 26 26 26 25 23 24 24 24 25 24 25 25 26 27 27 28 26 25 26 27 29 31 31 30 28 28 27 27 26 25 25 25 25 23 24 23 23 23 22 21 21
33 31 30 31 31 28 31 33 36 36 35 33 31 29 27 27 25 23 23 23 23 23 23 23 24 23 25 25 26 27 26 25 27 27 28 28 28 28 27 27 26 26 25 26 26 26 26 26 25 25 25 24 23 22
31 35 33 33 29 31 33 33 35 33 33 32 29 29 28 27 29 27 22 22 22 23 22 23 23 22 22 23 25 26 25 26 27 25 27 26 26 26 26 25 25 25 26 27 27 26 26 26 26 26 26 25 24 23
35 38 38 36 33 32 34 35 34 34 34 33 31 31 30 29 31 26 23 22 22 23 23 22 22 22 23 23 23 23 23 24 25 22 23 22 24 24 25 24 24 25 27 28 28 27 27 26 27 27 26 26 25 24